Weather History for Clayton Lake, ME

Change the Weather History Date:

Wednesday, February 6, 2013

  Actual Average Record
Temperature  
Mean Temperature 10 °F -  
Max Temperature 21 °F 22 °F 43 °F (2005)
Min Temperature -2 °F -6 °F -23 °F (1998)
Degree Days  
Heating Degree Days 56    
Moisture  
Dew Point 0 °F    
Average Humidity 72    
Maximum Humidity 85    
Minimum Humidity 60    
Precipitation  
Precipitation 0.04 in - - ()
Sea Level Pressure  
Sea Level Pressure 30.00 in    
Wind  
Wind Speed 5 mph (SSW)    
Max Wind Speed 14 mph    
Max Gust Speed 24 mph    
Averages and records for this station are not official NWS values.
T = Trace of Precipitation, MM = Missing Value Source: NWS Daily Summary

Daily Weather History Graph

Daily Weather History Graph

Search for Another Location

Airport:

Trip Planner

Search our weather history database for the weather conditions in past years. The results will help you decide how hot, cold, wet, or windy it might be!

Date:

Astronomy

Feb. 06, 2013 Rise Set
Actual Time 6:55 AM EST 4:49 PM EST
Civil Twilight 6:23 AM EST 5:21 PM EST
Nautical Twilight 5:47 AM EST 5:57 PM EST
Astronomical Twilight 5:12 AM EST 6:32 PM EST
Moon 3:42 AM EST (2/6) 12:57 PM EST (2/6)
Length of Visible Light 10h 58m
Length of Day
9h 54m
Waning Crescent, 17% of the Moon is Illuminated
Feb 6
Waning Crescent
Feb 10
New
Feb 17
First Quarter
Feb 25
Full
Mar 4
Last Quarter

Hourly Weather History & Observations

Time (EST) Temp. Windchill Dew Point Humidity Pressure Visibility Wind Dir Wind Speed Gust Speed Precip Events Conditions
12:25 AM -1.7 °F - -7.8 °F 75% 30.02 in - Calm Calm - 0.01 in   Unknown
1:25 AM -1.5 °F -9.5 °F -7.6 °F 75% 30.01 in - Variable 3.5 mph - 0.01 in   Unknown
2:25 AM -1.5 °F - -6.7 °F 78% 30.00 in - Variable 2.3 mph - 0.00 in   Unknown
3:25 AM 0.5 °F -7.3 °F -6.0 °F 74% 29.98 in - Variable 3.5 mph - N/A   Unknown
4:25 AM 1.9 °F - -5.6 °F 71% 29.98 in - Variable 2.3 mph - 0.00 in   Unknown
5:25 AM 4.8 °F - -3.5 °F 69% 29.97 in - Calm Calm - 0.01 in   Unknown
6:25 AM 5.5 °F -6.3 °F -0.2 °F 77% 29.97 in - Variable 6.9 mph - N/A   Unknown
7:25 AM 6.4 °F -6.3 °F 1.4 °F 80% 29.96 in - South 8.1 mph 15.0 mph N/A   Unknown
8:27 AM 8.1 °F -2.0 °F 3.4 °F 81% 29.96 in - Variable 5.8 mph 12.7 mph 0.01 in   Unknown
9:32 AM 10.9 °F -4.7 °F 5.4 °F 78% 29.93 in - South 13.8 mph 18.4 mph N/A   Unknown
10:41 AM 13.3 °F 1.1 °F 8.2 °F 80% 29.91 in - SSE 9.2 mph 19.6 mph N/A   Unknown
11:25 AM 16.7 °F 3.8 °F 11.1 °F 79% 29.88 in - South 11.5 mph 17.3 mph 0.00 in   Unknown
12:28 PM 20.3 °F 11.5 °F 16.3 °F 85% 29.87 in - South 6.9 mph - 0.01 in   Unknown
1:28 PM 20.3 °F 9.0 °F 12.9 °F 73% 29.88 in - SSW 10.4 mph 21.9 mph N/A   Unknown
2:25 PM 18.7 °F 7.8 °F 7.5 °F 62% 29.92 in - SW 9.2 mph 23.0 mph N/A   Unknown
3:28 PM 16.5 °F 6.0 °F 5.5 °F 62% 29.95 in - SW 8.1 mph 24.2 mph N/A   Unknown
4:25 PM 13.6 °F 1.6 °F 2.5 °F 61% 29.99 in - WSW 9.2 mph 20.7 mph 0.00 in   Unknown
5:25 PM 10.8 °F 4.5 °F 4.5 °F 76% 30.01 in - Variable 3.5 mph - 0.00 in   Unknown
6:27 PM 10.6 °F -1.3 °F 1.8 °F 68% 30.05 in - WSW 8.1 mph 16.1 mph N/A   Unknown
7:25 PM 7.5 °F -3.9 °F -3.8 °F 60% 30.11 in - Variable 6.9 mph 19.6 mph 0.00 in   Unknown
8:25 PM 4.3 °F -2.9 °F -6.3 °F 61% 30.14 in - Variable 3.5 mph - 0.00 in   Unknown
9:25 PM 2.5 °F -7.0 °F -8.0 °F 62% 30.17 in - Variable 4.6 mph 16.1 mph N/A   Unknown
10:25 PM 0.1 °F -7.7 °F -9.0 °F 65% 30.20 in - Variable 3.5 mph - N/A   Unknown
11:25 PM -2.0 °F - -10.5 °F 67% 30.23 in - Calm Calm - 0.00 in   Unknown